[[{"header":{"parameterUnit":"m.s-1","parameterCategory":1,"la1":30.2991,"la2":30.254,"lo1":-89.0895,"lo2":-89.0444,"dy":0.0017,"dx":0.0017,"nx":28,"ny":28,"refTime":"2024-08-16T21:00:00:Z","depth":0,"parameterNumber":2,"parameterNumberName":"U-component_of_WINDS"},"data":[0,0,0,0,0,0,0,0,0,0,0,0,0,0,0,0,0,0,0,0,0,0,0,0,0,0,0,0,0,0,0,0,0,0,0,0,0,0,0,0,0,0,0,0,0,0,0,0,0,0,0,0,0,0,0,0,0,0,2.3188,2.3188,0,2.3256,2.3257,2.3258,2.3184,2.3181,2.3179,2.3176,2.3256,2.326,2.3265,0,0,0,0,0,0,0,0,0,0,0,0,0,2.3005,2.3008,2.3188,2.3189,2.3189,2.3256,2.3257,2.3258,2.3185,2.3181,2.3178,2.3175,2.3254,2.326,2.3266,0,0,0,0,0,0,0,0,0,0,0,0,0,2.308,2.3009,2.3188,2.3161,2.3159,2.3256,2.3257,2.3258,2.3186,2.3181,2.3177,2.3173,2.3252,2.3259,2.3266,2.3396,0,0,2.3288,2.3291,0,0,0,0,0,0,0,0,2.3076,2.3087,2.3164,2.3163,2.3161,2.3207,2.3221,2.3305,2.3187,2.3176,2.3176,2.3171,2.3244,2.3251,2.3274,2.34,2.3403,2.3289,2.3293,2.3296,2.3298,0,0,0,0,0,0,0,2.3071,2.3083,2.3215,2.3165,2.3163,2.3149,2.3155,2.3237,2.3233,2.3176,2.3171,2.318,2.3242,2.3267,2.3275,2.3404,2.3289,2.3295,2.3299,2.3302,2.3644,2.3648,0,0,0,0,0,0,2.3067,2.308,2.3213,2.3217,2.3107,2.3156,2.3162,2.3197,2.3232,2.3233,2.3183,2.3176,2.3257,2.3267,2.3278,2.3434,2.3296,2.3303,2.3307,2.3639,2.3645,2.365,0,0,0,0,0,0,2.3063,2.3079,2.321,2.3147,2.3162,2.3163,2.3203,2.32,2.3225,2.3237,2.3237,2.3209,2.3254,2.3268,2.3367,2.3436,2.3306,2.3313,2.3633,2.3641,2.3648,2.3747,0,0,0,0,0,0,2.3058,2.3079,2.3125,2.3148,2.3166,2.3296,2.3207,2.3205,2.3236,2.3228,2.3261,2.3263,2.3252,2.3357,2.3374,2.3443,2.3318,2.3627,2.3637,2.3645,2.3737,2.3756,2.3773,0,0,0,0,0,2.3052,2.3152,2.3128,2.3144,2.3224,2.3299,2.331,2.3292,2.3242,2.3291,2.3299,2.3261,2.3425,2.3368,2.3387,2.3459,2.3623,2.3634,2.3645,2.3729,2.3753,2.3772,0,0,0,0,0,0,2.314,2.3154,2.3128,2.3237,2.3267,2.3287,2.3348,2.3317,2.3365,2.3355,2.3334,2.3343,2.3449,2.3463,2.3399,2.3588,2.3516,2.3531,2.3574,2.3597,2.3614,2.3609,2.3324,0,0,0,0,0,2.3171,2.3228,2.3239,2.3335,2.3351,2.3347,2.3379,2.3363,2.3395,2.3408,2.3423,2.3459,2.3518,2.3558,2.3613,2.3739,2.3747,2.3798,2.3816,2.383,2.3844,2.3915,2.3939,2.3685,2.3685,2.3685,0,0,2.3238,2.3253,2.3291,2.3353,2.3374,2.3438,2.3358,2.3428,2.3476,2.342,2.3514,2.3527,2.3565,2.3679,2.373,2.3695,2.3916,2.3844,2.3855,2.3862,2.3929,2.3953,2.3974,2.3693,2.3691,2.369,0,0,2.3392,2.3407,2.349,2.3513,2.3545,2.3542,2.3563,2.3587,2.3593,2.3686,2.3647,2.3705,2.3807,2.3836,2.3865,2.4032,2.4001,2.4051,2.4144,2.4214,2.4234,2.4252,2.4314,2.4337,2.4065,2.4065,2.4065,0,2.3472,2.3562,2.3537,2.361,2.3641,2.359,2.3676,2.37,2.3751,2.3775,2.3734,2.3862,2.3884,2.4005,2.4046,2.407,2.4096,2.4048,2.4232,2.425,2.4266,2.4326,2.4349,2.4071,2.407,2.407,2.4069,0,2.366,2.3724,2.3787,2.3834,2.3872,2.3951,2.3942,2.3984,2.3965,2.3968,2.4067,2.4091,2.4151,2.4179,2.4162,2.43,2.4277,2.4234,2.4163,2.4297,2.4353,2.4375,2.408,2.4078,2.4076,2.4074,0,0,2.3872,2.3904,2.3929,2.3951,2.3983,2.4034,2.4113,2.4169,2.4207,2.4244,2.4312,2.44,2.4361,2.4394,2.438,2.4441,2.4576,2.4391,2.4392,2.4427,2.4733,2.4766,2.4793,2.4554,2.4559,2.4562,2.4731,0,2.4028,2.4161,2.4143,2.4272,2.4333,2.4287,2.4356,2.4386,2.4391,2.4446,2.4453,2.4516,2.4459,2.4479,2.4536,2.4547,2.4638,2.4534,2.4622,2.4625,2.4615,2.4822,2.4857,2.5015,2.4752,2.4756,2.4758,0,2.4229,2.4271,2.4406,2.4431,2.4456,2.4518,2.457,2.4622,2.4657,2.4656,2.4693,2.4669,2.4752,2.4677,2.4794,2.4724,2.4759,2.477,2.4776,2.4785,2.4701,2.484,2.5064,2.5089,2.4792,2.4789,2.4787,0,2.4373,2.4464,2.4557,2.4577,2.4608,2.4654,2.467,2.4699,2.4735,2.4782,2.4806,2.4862,2.4894,2.494,2.4934,2.4879,2.5054,2.4977,2.5059,2.506,2.51,2.5098,2.5336,2.5118,2.5118,2.5117,2.5117,0,2.4552,2.4637,2.4622,2.468,2.4776,2.4755,2.4851,2.4862,2.4889,2.4951,2.4915,2.4975,2.4961,2.5021,2.5017,2.5116,2.5131,2.5136,2.5134,2.514,2.514,2.5164,2.5154,2.5124,2.5122,2.5121,2.512,0,2.473,2.4723,2.4822,2.4843,2.4851,2.492,2.4941,2.4997,2.4999,2.5078,2.5095,2.51,2.5169,2.5167,2.5246,2.5244,2.5366,2.5351,2.5354,2.5352,2.5435,2.5428,2.5699,2.5735,2.5492,2.5494,2.5496,0,2.4845,2.4909,2.4937,2.4975,2.4993,2.5054,2.509,2.5073,2.5113,2.5158,2.5211,2.5276,2.5327,2.5441,2.5454,2.5516,2.5503,2.5594,2.5512,2.5517,2.5508,2.5505,2.5513,2.5611,2.5613,2.5616,2.5617,0,2.5052,2.5045,2.5097,2.5149,2.5192,2.5233,2.527,2.5304,2.5291,2.5339,2.5408,2.5448,2.5528,2.5595,2.5654,2.5674,2.5646,2.5642,2.5665,2.5674,2.5674,2.5678,2.5401,2.5637,2.5635,2.5634,2.5632,2.5632,2.5204,2.526,2.5289,2.5349,2.5374,2.541,2.5464,2.5473,2.5529,2.5591,2.5579,2.5658,2.5694,2.577,2.5795,2.5859,2.5828,2.586,2.5869,2.5877,2.5888,2.5661,2.587,2.5869,2.5869,2.5868,2.5868,0,2.5411,2.5427,2.5482,2.5534,2.5583,2.5547,2.5587,2.5631,2.57,2.5734,2.5785,2.5867,2.5932,2.595,2.6013,2.6062,2.605,2.6079,2.6077,2.6083,2.5911,2.5886,2.6087,2.6087,2.6087,2.6087,2.6087,2.6087,2.5525,2.5618,2.5616,2.5724,2.574,2.5814,2.5841,2.5875,2.5902,2.5994,2.6047,2.6057,2.6086,2.6152,2.6212,2.6215,2.6242,2.6277,2.6276,2.6116,2.6094,2.6074,2.605,2.6282,2.6283,2.6443,2.6444,2.6445]},{"header":{"parameterUnit":"m.s-1","parameterCategory":1,"la1":30.2991,"la2":30.254,"lo1":-89.0895,"lo2":-89.0444,"dy":0.0017,"dx":0.0017,"nx":28,"ny":28,"refTime":"2024-08-16T21:00:00:Z","depth":0,"parameterNumber":3,"parameterNumberName":"V-component_of_WINDS"},"data":[0,0,0,0,0,0,0,0,0,0,0,0,0,0,0,0,0,0,0,0,0,0,0,0,0,0,0,0,0,0,0,0,0,0,0,0,0,0,0,0,0,0,0,0,0,0,0,0,0,0,0,0,0,0,0,0,0,0,0.4341,0.4343,0,0.447,0.4472,0.4473,0.4494,0.4493,0.4492,0.4491,0.4623,0.4627,0.4632,0,0,0,0,0,0,0,0,0,0,0,0,0,0.4112,0.4116,0.4341,0.4343,0.4344,0.447,0.4472,0.4473,0.4494,0.4493,0.4492,0.449,0.4621,0.4627,0.4632,0,0,0,0,0,0,0,0,0,0,0,0,0,0.4223,0.4118,0.4341,0.437,0.4374,0.4469,0.4472,0.4474,0.4495,0.4493,0.4491,0.449,0.4619,0.4626,0.4633,0.4708,0,0,0.4654,0.4657,0,0,0,0,0,0,0,0,0.4217,0.4232,0.4364,0.4368,0.4373,0.4464,0.4439,0.4552,0.4495,0.4449,0.4491,0.4489,0.4571,0.4582,0.461,0.4715,0.472,0.4654,0.4658,0.4661,0.4663,0,0,0,0,0,0,0,0.4209,0.4226,0.4392,0.4366,0.4371,0.4376,0.439,0.4461,0.4518,0.4453,0.4455,0.4469,0.4573,0.4603,0.4613,0.4722,0.4654,0.466,0.4664,0.4667,0.4892,0.4893,0,0,0,0,0,0,0.4197,0.422,0.4388,0.4396,0.4289,0.4382,0.4397,0.4437,0.4517,0.4528,0.4471,0.447,0.4592,0.4605,0.4618,0.4709,0.4661,0.4668,0.4672,0.489,0.4892,0.4894,0,0,0,0,0,0,0.4192,0.4211,0.4383,0.4309,0.4331,0.4387,0.4431,0.444,0.447,0.4531,0.4541,0.4491,0.4592,0.4608,0.4685,0.4714,0.4671,0.4677,0.4887,0.489,0.4893,0.4893,0,0,0,0,0,0,0.4185,0.4209,0.4239,0.4309,0.4335,0.4448,0.4433,0.4444,0.4482,0.4482,0.4552,0.4562,0.4592,0.4675,0.4692,0.4722,0.4682,0.4885,0.4889,0.4892,0.4891,0.4896,0.49,0,0,0,0,0,0.4177,0.4235,0.4241,0.4261,0.4373,0.445,0.4465,0.4497,0.4484,0.4514,0.4552,0.456,0.4708,0.4682,0.4702,0.4735,0.4883,0.4888,0.4892,0.4889,0.4895,0.49,0,0,0,0,0,0,0.4168,0.4245,0.4252,0.4335,0.4385,0.4453,0.4492,0.4503,0.4559,0.4556,0.4594,0.461,0.4684,0.4718,0.4687,0.481,0.4795,0.4803,0.4786,0.4792,0.4796,0.4786,0.4688,0,0,0,0,0,0.4176,0.4232,0.4296,0.4363,0.4388,0.4435,0.447,0.4491,0.4545,0.4567,0.4611,0.4663,0.4721,0.4759,0.4816,0.4896,0.491,0.4928,0.4933,0.4936,0.4942,0.4984,0.4992,0.4908,0.4908,0.4908,0,0,0.4192,0.4241,0.4274,0.4362,0.4404,0.446,0.4454,0.4515,0.4556,0.4576,0.465,0.4684,0.4745,0.4823,0.4859,0.4853,0.4969,0.4941,0.4944,0.4948,0.4989,0.4997,0.5004,0.4911,0.491,0.491,0,0,0.425,0.4294,0.4353,0.4394,0.4457,0.4488,0.4502,0.4568,0.4592,0.4667,0.4682,0.4732,0.4832,0.4873,0.4907,0.4979,0.4987,0.4996,0.5019,0.5059,0.5066,0.5072,0.5094,0.5102,0.5003,0.5003,0.5003,0,0.4263,0.4349,0.4382,0.4441,0.4478,0.4498,0.4557,0.4596,0.4674,0.4699,0.4691,0.4814,0.4857,0.4943,0.496,0.4988,0.5003,0.4988,0.5062,0.5069,0.5075,0.5096,0.5105,0.5003,0.5003,0.5003,0.5003,0,0.4359,0.4418,0.4458,0.4532,0.4574,0.4633,0.4674,0.4712,0.4728,0.476,0.4834,0.4886,0.4952,0.4974,0.4991,0.5062,0.5056,0.5055,0.5039,0.5082,0.5103,0.5112,0.5004,0.5004,0.5003,0.5003,0,0,0.4416,0.4506,0.452,0.4552,0.4622,0.4668,0.4727,0.4791,0.4822,0.4875,0.4924,0.5006,0.5005,0.5043,0.5065,0.5101,0.515,0.5095,0.5097,0.5101,0.5228,0.5226,0.5236,0.5156,0.5158,0.516,0.5222,0,0.448,0.4585,0.4616,0.4704,0.4758,0.4776,0.4827,0.4875,0.4905,0.4955,0.4989,0.5045,0.5041,0.5063,0.51,0.5136,0.5176,0.5133,0.52,0.5202,0.5182,0.5247,0.5247,0.5303,0.523,0.5232,0.5233,0,0.457,0.4622,0.4716,0.4776,0.48,0.4845,0.4904,0.4952,0.5006,0.5025,0.5067,0.5085,0.5145,0.5128,0.521,0.518,0.5209,0.5231,0.5234,0.524,0.5219,0.5253,0.5322,0.533,0.5247,0.5246,0.5245,0,0.4598,0.4693,0.476,0.4788,0.4861,0.4891,0.4923,0.4975,0.5011,0.5063,0.5086,0.5145,0.5177,0.5221,0.5254,0.5238,0.5332,0.5318,0.5348,0.5347,0.5366,0.5364,0.5439,0.5389,0.5389,0.5388,0.5388,0,0.4665,0.4721,0.4773,0.4814,0.4876,0.4911,0.4971,0.5004,0.5049,0.5096,0.5117,0.516,0.5201,0.525,0.5276,0.5338,0.5353,0.5369,0.5375,0.5367,0.5364,0.5385,0.5381,0.5391,0.539,0.539,0.5389,0,0.4707,0.4744,0.4818,0.4881,0.4897,0.494,0.4993,0.5033,0.5064,0.5122,0.5138,0.5186,0.5244,0.5281,0.5356,0.5373,0.544,0.5446,0.5422,0.5424,0.5452,0.5448,0.5541,0.5554,0.5497,0.5497,0.5498,0,0.4746,0.4789,0.4855,0.4888,0.4919,0.4972,0.5008,0.5043,0.5079,0.5142,0.5174,0.5233,0.5282,0.5373,0.5414,0.547,0.5476,0.5505,0.5484,0.5473,0.5473,0.5469,0.5473,0.5507,0.5508,0.5508,0.5508,0,0.4811,0.4827,0.4878,0.4935,0.4977,0.5024,0.507,0.5096,0.5138,0.5178,0.5237,0.5275,0.5349,0.5407,0.5466,0.5498,0.5509,0.5514,0.5524,0.5515,0.5498,0.5504,0.5428,0.5512,0.5512,0.5511,0.5511,0.5511,0.4851,0.4889,0.494,0.4996,0.5034,0.5077,0.5116,0.5151,0.5201,0.5264,0.5282,0.5343,0.5393,0.5474,0.5506,0.5554,0.555,0.5565,0.5568,0.557,0.5569,0.5491,0.5565,0.5565,0.5565,0.5565,0.5565,0,0.4915,0.4949,0.4999,0.5063,0.5106,0.5113,0.5165,0.52,0.5253,0.5299,0.5346,0.5412,0.5468,0.5512,0.5569,0.5598,0.5604,0.5611,0.5609,0.5615,0.5571,0.5555,0.5605,0.5605,0.5605,0.5605,0.5605,0.5605,0.4953,0.5016,0.5038,0.512,0.5153,0.5213,0.5241,0.5279,0.5316,0.5389,0.5435,0.5463,0.5508,0.5568,0.5618,0.563,0.5648,0.5654,0.5666,0.5623,0.5619,0.5614,0.56,0.5658,0.5658,0.5706,0.5707,0.5707]}]]